Time,TemperatureF,DewpointF,PressureIn,WindDirection,WindDirectionDegrees,WindSpeedMPH,WindSpeedGustMPH,Humidity,HourlyPrecipIn,Conditions,Clouds,dailyrainin,SoftwareType,DateUTC
2013-04-26 00:04:00,49.7,28.5,30.15,NW,315,2.2,2.5,44,0.00,,,0.00,WUHU216HW,2013-04-26 07:04:00,
2013-04-26 00:09:00,49.7,29.1,30.14,WNW,293,2.2,2.5,45,0.00,,,0.00,WUHU216HW,2013-04-26 07:09:00,
2013-04-26 00:14:00,49.9,28.7,30.14,North,0,0.4,2.2,44,0.00,,,0.00,WUHU216HW,2013-04-26 07:14:00,
2013-04-26 00:19:00,49.9,28.7,30.14,WSW,248,0.9,1.1,44,0.00,,,0.00,WUHU216HW,2013-04-26 07:19:00,
2013-04-26 00:24:00,49.9,28.7,30.15,SW,225,0.0,1.6,44,0.00,,,0.00,WUHU216HW,2013-04-26 07:24:00,
2013-04-26 00:29:00,49.3,28.2,30.15,North,0,0.0,1.6,44,0.00,,,0.00,WUHU216HW,2013-04-26 07:29:00,
2013-04-26 00:34:00,49.1,28.6,30.14,WNW,293,0.4,1.1,45,0.00,,,0.00,WUHU216HW,2013-04-26 07:34:00,
2013-04-26 00:39:00,48.6,28.1,30.15,NW,315,0.9,1.8,45,0.00,,,0.00,WUHU216HW,2013-04-26 07:39:00,
2013-04-26 00:44:00,48.6,28.1,30.15,SSW,203,0.9,1.8,45,0.00,,,0.00,WUHU216HW,2013-04-26 07:44:00,
2013-04-26 00:50:00,48.6,28.1,30.15,North,0,0.0,1.1,45,0.00,,,0.00,WUHU216HW,2013-04-26 07:50:00,
2013-04-26 00:55:00,48.4,27.9,30.15,NW,315,0.4,0.4,45,0.00,,,0.00,WUHU216HW,2013-04-26 07:55:00,
2013-04-26 01:00:00,48.1,27.5,30.15,WNW,293,0.0,0.7,45,0.00,,,0.00,WUHU216HW,2013-04-26 08:00:00,
2013-04-26 01:05:00,48.1,27.5,30.16,North,0,0.4,1.1,45,0.00,,,0.00,WUHU216HW,2013-04-26 08:05:00,
2013-04-26 01:10:00,47.9,27.4,30.16,North,0,0.7,1.1,45,0.00,,,0.00,WUHU216HW,2013-04-26 08:10:00,
2013-04-26 01:15:00,47.9,27.9,30.16,NNW,338,0.7,1.3,46,0.00,,,0.00,WUHU216HW,2013-04-26 08:15:00,
2013-04-26 01:20:00,47.9,27.9,30.16,North,0,0.0,1.3,46,0.00,,,0.00,WUHU216HW,2013-04-26 08:20:00,
2013-04-26 01:25:00,47.7,27.3,30.16,NNW,338,0.4,1.8,45,0.00,,,0.00,WUHU216HW,2013-04-26 08:25:00,
2013-04-26 01:30:00,47.7,27.8,30.16,North,0,0.4,1.8,46,0.00,,,0.00,WUHU216HW,2013-04-26 08:30:00,
2013-04-26 01:35:00,47.7,28.4,30.16,NW,315,2.2,2.2,47,0.00,,,0.00,WUHU216HW,2013-04-26 08:35:00,
2013-04-26 01:40:00,47.9,27.9,30.16,WNW,293,1.1,2.2,46,0.00,,,0.00,WUHU216HW,2013-04-26 08:40:00,
2013-04-26 01:45:00,47.7,27.8,30.16,WNW,293,0.7,2.5,46,0.00,,,0.00,WUHU216HW,2013-04-26 08:45:00,
2013-04-26 01:50:00,47.5,27.6,30.16,NW,315,0.0,2.5,46,0.00,,,0.00,WUHU216HW,2013-04-26 08:50:00,
2013-04-26 01:55:00,47.3,27.5,30.15,North,0,0.9,1.6,46,0.00,,,0.00,WUHU216HW,2013-04-26 08:55:00,
2013-04-26 02:00:00,47.2,27.3,30.15,North,0,0.0,1.8,46,0.00,,,0.00,WUHU216HW,2013-04-26 09:00:00,
2013-04-26 02:05:00,47.0,27.6,30.15,North,0,1.1,1.8,47,0.00,,,0.00,WUHU216HW,2013-04-26 09:05:00,
2013-04-26 02:10:00,47.0,27.6,30.16,WSW,248,1.1,1.1,47,0.00,,,0.00,WUHU216HW,2013-04-26 09:10:00,
2013-04-26 02:15:00,46.8,27.6,30.16,WNW,293,0.0,1.8,47,0.00,,,0.00,WUHU216HW,2013-04-26 09:15:00,
2013-04-26 02:21:00,46.6,27.4,30.16,North,0,0.0,1.8,47,0.00,,,0.00,WUHU216HW,2013-04-26 09:21:00,
2013-04-26 02:26:00,46.4,27.2,30.16,SW,225,0.4,1.1,47,0.00,,,0.00,WUHU216HW,2013-04-26 09:26:00,
2013-04-26 02:31:00,46.3,27.0,30.16,SW,225,0.0,1.1,47,0.00,,,0.00,WUHU216HW,2013-04-26 09:31:00,
2013-04-26 02:36:00,46.1,27.4,30.16,NNW,338,0.4,0.7,48,0.00,,,0.00,WUHU216HW,2013-04-26 09:36:00,
2013-04-26 02:41:00,45.7,27.6,30.16,North,0,0.0,0.7,49,0.00,,,0.00,WUHU216HW,2013-04-26 09:41:00,
2013-04-26 02:46:00,45.7,27.6,30.16,SSW,203,0.0,0.7,49,0.00,,,0.00,WUHU216HW,2013-04-26 09:46:00,
2013-04-26 02:51:00,45.5,28.0,30.16,ENE,68,0.9,0.9,50,0.00,,,0.00,WUHU216HW,2013-04-26 09:51:00,
2013-04-26 02:56:00,45.4,28.3,30.16,North,0,1.1,1.1,51,0.00,,,0.00,WUHU216HW,2013-04-26 09:56:00,
2013-04-26 03:01:00,45.4,28.7,30.16,NW,315,0.2,2.2,52,0.00,,,0.00,WUHU216HW,2013-04-26 10:01:00,
2013-04-26 03:06:00,45.5,28.9,30.16,North,0,0.7,2.2,52,0.00,,,0.00,WUHU216HW,2013-04-26 10:06:00,
2013-04-26 03:11:00,45.7,29.1,30.16,WNW,293,1.6,1.8,52,0.00,,,0.00,WUHU216HW,2013-04-26 10:11:00,
2013-04-26 03:16:00,45.5,28.9,30.17,WNW,293,0.4,3.4,52,0.00,,,0.00,WUHU216HW,2013-04-26 10:16:00,
2013-04-26 03:21:00,45.4,28.7,30.17,West,270,0.0,3.4,52,0.00,,,0.00,WUHU216HW,2013-04-26 10:21:00,
2013-04-26 03:26:00,45.2,29.4,30.17,NW,315,1.8,2.5,54,0.00,,,0.00,WUHU216HW,2013-04-26 10:26:00,
2013-04-26 03:31:00,45.0,28.9,30.17,WNW,293,0.7,2.9,53,0.00,,,0.00,WUHU216HW,2013-04-26 10:31:00,
2013-04-26 03:37:00,45.0,28.9,30.17,North,0,0.9,2.9,53,0.00,,,0.00,WUHU216HW,2013-04-26 10:37:00,
2013-04-26 03:42:00,45.0,28.9,30.17,NNW,338,1.1,1.1,53,0.00,,,0.00,WUHU216HW,2013-04-26 10:42:00,
2013-04-26 03:47:00,44.8,28.3,30.17,North,0,1.3,1.3,52,0.00,,,0.00,WUHU216HW,2013-04-26 10:47:00,
2013-04-26 03:52:00,44.8,28.3,30.17,NNE,23,1.3,1.3,52,0.00,,,0.00,WUHU216HW,2013-04-26 10:52:00,
2013-04-26 03:57:00,45.0,28.5,30.17,ENE,68,0.7,1.8,52,0.00,,,0.00,WUHU216HW,2013-04-26 10:57:00,
2013-04-26 04:02:00,45.0,28.5,30.18,North,0,0.0,1.8,52,0.00,,,0.00,WUHU216HW,2013-04-26 11:02:00,
2013-04-26 04:07:00,44.8,28.3,30.17,East,90,0.4,1.3,52,0.00,,,0.00,WUHU216HW,2013-04-26 11:07:00,
2013-04-26 04:12:00,44.8,28.3,30.18,East,90,0.4,1.3,52,0.00,,,0.00,WUHU216HW,2013-04-26 11:12:00,
2013-04-26 04:17:00,44.6,28.5,30.18,WNW,293,0.9,3.4,53,0.00,,,0.00,WUHU216HW,2013-04-26 11:17:00,
2013-04-26 04:22:00,44.5,28.8,30.18,WSW,248,3.4,3.6,54,0.00,,,0.00,WUHU216HW,2013-04-26 11:22:00,
2013-04-26 04:27:00,44.3,28.6,30.18,NW,315,0.7,3.6,54,0.00,,,0.00,WUHU216HW,2013-04-26 11:27:00,
2013-04-26 04:32:00,44.3,29.1,30.18,WNW,293,0.2,2.2,55,0.00,,,0.00,WUHU216HW,2013-04-26 11:32:00,
2013-04-26 04:37:00,44.3,30.0,30.18,NNW,338,2.2,2.2,57,0.00,,,0.00,WUHU216HW,2013-04-26 11:37:00,
2013-04-26 04:42:00,44.3,29.5,30.18,SW,225,0.4,2.2,56,0.00,,,0.00,WUHU216HW,2013-04-26 11:42:00,
2013-04-26 04:47:00,44.3,29.1,30.18,NNE,23,0.4,1.6,55,0.00,,,0.00,WUHU216HW,2013-04-26 11:47:00,
2013-04-26 04:52:00,44.3,29.5,30.18,North,0,1.1,1.6,56,0.00,,,0.00,WUHU216HW,2013-04-26 11:52:00,
2013-04-26 04:57:00,44.5,29.7,30.18,SW,225,0.7,2.2,56,0.00,,,0.00,WUHU216HW,2013-04-26 11:57:00,
2013-04-26 05:02:00,44.3,29.5,30.18,NE,45,0.0,2.2,56,0.00,,,0.00,WUHU216HW,2013-04-26 12:02:00,
2013-04-26 05:07:00,44.3,29.1,30.18,WSW,248,0.9,2.0,55,0.00,,,0.00,WUHU216HW,2013-04-26 12:07:00,
2013-04-26 05:13:00,44.1,29.3,30.18,WNW,293,0.0,2.7,56,0.00,,,0.00,WUHU216HW,2013-04-26 12:13:00,
2013-04-26 05:18:00,43.9,29.6,30.19,West,270,0.4,2.7,57,0.00,,,0.00,WUHU216HW,2013-04-26 12:18:00,
2013-04-26 05:23:00,43.7,29.9,30.19,SW,225,1.8,4.3,58,0.00,,,0.00,WUHU216HW,2013-04-26 12:23:00,
2013-04-26 05:28:00,43.6,30.2,30.19,NE,45,0.7,4.3,59,0.00,,,0.00,WUHU216HW,2013-04-26 12:28:00,
2013-04-26 05:33:00,43.6,30.6,30.19,WSW,248,0.7,4.0,60,0.00,,,0.00,WUHU216HW,2013-04-26 12:33:00,
2013-04-26 05:38:00,43.4,30.4,30.19,NNE,23,1.6,4.0,60,0.00,,,0.00,WUHU216HW,2013-04-26 12:38:00,
2013-04-26 05:43:00,43.2,30.2,30.19,WNW,293,1.6,2.5,60,0.00,,,0.00,WUHU216HW,2013-04-26 12:43:00,
2013-04-26 05:48:00,43.0,30.4,30.19,North,0,1.3,2.5,61,0.00,,,0.00,WUHU216HW,2013-04-26 12:48:00,
2013-04-26 05:53:00,43.0,29.6,30.19,SW,225,0.2,2.7,59,0.00,,,0.00,WUHU216HW,2013-04-26 12:53:00,
2013-04-26 05:58:00,43.0,29.6,30.19,NE,45,0.4,2.7,59,0.00,,,0.00,WUHU216HW,2013-04-26 12:58:00,
2013-04-26 06:03:00,42.8,29.4,30.19,SSW,203,1.6,1.6,59,0.00,,,0.00,WUHU216HW,2013-04-26 13:03:00,
2013-04-26 06:08:00,42.7,30.2,30.20,WNW,293,1.8,2.5,61,0.00,,,0.00,WUHU216HW,2013-04-26 13:08:00,
2013-04-26 06:13:00,42.5,29.5,30.19,NW,315,0.4,2.2,60,0.00,,,0.00,WUHU216HW,2013-04-26 13:13:00,
2013-04-26 06:18:00,42.5,29.5,30.19,West,270,0.2,1.6,60,0.00,,,0.00,WUHU216HW,2013-04-26 13:18:00,
2013-04-26 06:23:00,42.5,30.0,30.19,South,180,1.1,1.6,61,0.00,,,0.00,WUHU216HW,2013-04-26 13:23:00,
2013-04-26 06:28:00,42.5,29.5,30.19,SSW,203,0.4,1.3,60,0.00,,,0.00,WUHU216HW,2013-04-26 13:28:00,
2013-04-26 06:33:00,42.5,30.3,30.20,NE,45,0.4,4.3,62,0.00,,,0.00,WUHU216HW,2013-04-26 13:33:00,
2013-04-26 06:39:00,42.5,30.7,30.20,SW,225,0.2,2.7,63,0.00,,,0.00,WUHU216HW,2013-04-26 13:39:00,
2013-04-26 06:44:00,42.7,30.9,30.20,NW,315,3.1,3.4,63,0.00,,,0.00,WUHU216HW,2013-04-26 13:44:00,
2013-04-26 06:49:00,42.8,31.5,30.20,SW,225,0.4,3.1,64,0.00,,,0.00,WUHU216HW,2013-04-26 13:49:00,
2013-04-26 06:54:00,42.8,30.7,30.20,NE,45,0.7,1.8,62,0.00,,,0.00,WUHU216HW,2013-04-26 13:54:00,
2013-04-26 06:59:00,42.8,30.7,30.20,NE,45,0.4,1.1,62,0.00,,,0.00,WUHU216HW,2013-04-26 13:59:00,
2013-04-26 07:04:00,42.8,30.7,30.20,SE,135,0.4,1.6,62,0.00,,,0.00,WUHU216HW,2013-04-26 14:04:00,
2013-04-26 07:09:00,43.0,30.9,30.20,South,180,0.4,2.0,62,0.00,,,0.00,WUHU216HW,2013-04-26 14:09:00,
2013-04-26 07:14:00,43.2,31.1,30.20,West,270,0.7,3.1,62,0.00,,,0.00,WUHU216HW,2013-04-26 14:14:00,
2013-04-26 07:19:00,43.2,31.4,30.20,NNW,338,1.6,3.1,63,0.00,,,0.00,WUHU216HW,2013-04-26 14:19:00,
2013-04-26 07:24:00,43.0,30.9,30.21,WNW,293,1.1,4.0,62,0.00,,,0.00,WUHU216HW,2013-04-26 14:24:00,
2013-04-26 07:29:00,43.2,31.4,30.20,SSW,203,2.5,4.0,63,0.00,,,0.00,WUHU216HW,2013-04-26 14:29:00,
2013-04-26 07:34:00,43.2,31.4,30.21,SW,225,2.7,3.8,63,0.00,,,0.00,WUHU216HW,2013-04-26 14:34:00,
2013-04-26 07:39:00,43.4,31.6,30.21,West,270,1.8,3.6,63,0.00,,,0.00,WUHU216HW,2013-04-26 14:39:00,
2013-04-26 07:44:00,43.6,31.8,30.21,SSW,203,2.7,4.7,63,0.00,,,0.00,WUHU216HW,2013-04-26 14:44:00,
2013-04-26 07:49:00,43.6,31.8,30.21,SSE,158,1.1,4.7,63,0.00,,,0.00,WUHU216HW,2013-04-26 14:49:00,
2013-04-26 07:54:00,43.7,31.6,30.21,SSE,158,1.1,1.3,62,0.00,,,0.00,WUHU216HW,2013-04-26 14:54:00,
2013-04-26 07:59:00,43.9,31.8,30.21,SSW,203,2.5,2.9,62,0.00,,,0.00,WUHU216HW,2013-04-26 14:59:00,
2013-04-26 08:05:00,44.1,32.3,30.22,SSE,158,0.7,3.4,63,0.00,,,0.00,WUHU216HW,2013-04-26 15:05:00,
2013-04-26 08:10:00,44.5,32.2,30.22,SW,225,1.1,5.4,62,0.00,,,0.00,WUHU216HW,2013-04-26 15:10:00,
2013-04-26 08:15:00,44.6,32.4,30.22,SSW,203,2.7,5.4,62,0.00,,,0.00,WUHU216HW,2013-04-26 15:15:00,
2013-04-26 08:20:00,45.0,32.8,30.22,SSW,203,2.2,2.7,62,0.00,,,0.00,WUHU216HW,2013-04-26 15:20:00,
2013-04-26 08:25:00,45.4,33.1,30.22,South,180,2.9,3.6,62,0.00,,,0.00,WUHU216HW,2013-04-26 15:25:00,
2013-04-26 08:30:00,45.9,33.6,30.22,South,180,0.7,6.5,62,0.00,,,0.00,WUHU216HW,2013-04-26 15:30:00,
2013-04-26 08:35:00,46.3,33.6,30.22,SW,225,2.7,6.5,61,0.00,,,0.00,WUHU216HW,2013-04-26 15:35:00,
2013-04-26 08:40:00,46.8,34.0,30.22,WSW,248,3.8,6.3,61,0.00,,,0.00,WUHU216HW,2013-04-26 15:40:00,
2013-04-26 08:45:00,47.3,34.6,30.22,WNW,293,1.3,4.0,61,0.00,,,0.00,WUHU216HW,2013-04-26 15:45:00,
2013-04-26 08:50:00,47.9,34.7,30.22,West,270,4.9,4.9,60,0.00,,,0.00,WUHU216HW,2013-04-26 15:50:00,
2013-04-26 08:55:00,48.4,35.3,30.22,SSE,158,3.1,6.5,60,0.00,,,0.00,WUHU216HW,2013-04-26 15:55:00,
2013-04-26 09:00:00,49.0,35.3,30.22,SW,225,2.5,6.5,59,0.00,,,0.00,WUHU216HW,2013-04-26 16:00:00,
2013-04-26 09:05:00,49.7,35.9,30.22,SSW,203,2.5,4.0,59,0.00,,,0.00,WUHU216HW,2013-04-26 16:05:00,
2013-04-26 09:11:00,50.2,36.0,30.22,WSW,248,1.1,4.0,58,0.00,,,0.00,WUHU216HW,2013-04-26 16:11:00,
2013-04-26 09:16:00,50.8,36.5,30.22,SSW,203,1.8,3.1,58,0.00,,,0.00,WUHU216HW,2013-04-26 16:16:00,
2013-04-26 09:21:00,51.5,36.6,30.22,NE,45,0.4,2.2,57,0.00,,,0.00,WUHU216HW,2013-04-26 16:21:00,
2013-04-26 09:26:00,52.0,36.7,30.22,SW,225,1.8,2.5,56,0.00,,,0.00,WUHU216HW,2013-04-26 16:26:00,
2013-04-26 09:31:00,52.6,36.8,30.22,SW,225,1.8,4.0,55,0.00,,,0.00,WUHU216HW,2013-04-26 16:31:00,
2013-04-26 09:36:00,53.3,37.0,30.22,SSW,203,3.8,6.3,54,0.00,,,0.00,WUHU216HW,2013-04-26 16:36:00,
2013-04-26 09:41:00,54.0,37.2,30.22,SW,225,3.1,6.3,53,0.00,,,0.00,WUHU216HW,2013-04-26 16:41:00,
2013-04-26 09:46:00,54.7,37.4,30.22,WNW,293,0.9,4.0,52,0.00,,,0.00,WUHU216HW,2013-04-26 16:46:00,
2013-04-26 09:51:00,55.3,37.4,30.22,SW,225,2.5,4.0,51,0.00,,,0.00,WUHU216HW,2013-04-26 16:51:00,
2013-04-26 09:56:00,55.8,37.4,30.22,WSW,248,3.6,3.6,50,0.00,,,0.00,WUHU216HW,2013-04-26 16:56:00,
2013-04-26 10:01:00,56.5,38.2,30.22,SSW,203,2.0,3.6,50,0.00,,,0.00,WUHU216HW,2013-04-26 17:01:00,
2013-04-26 10:06:00,57.1,38.2,30.22,SSW,203,5.1,5.1,49,0.00,,,0.00,WUHU216HW,2013-04-26 17:06:00,
2013-04-26 10:11:00,58.0,37.8,30.22,SW,225,2.5,5.1,47,0.00,,,0.00,WUHU216HW,2013-04-26 17:11:00,
2013-04-26 10:16:00,58.7,38.4,30.22,SW,225,2.9,4.3,47,0.00,,,0.00,WUHU216HW,2013-04-26 17:16:00,
2013-04-26 10:21:00,59.4,38.0,30.22,SE,135,3.8,5.4,45,0.00,,,0.00,WUHU216HW,2013-04-26 17:21:00,
2013-04-26 10:26:00,60.1,38.0,30.22,South,180,5.6,5.6,44,0.00,,,0.00,WUHU216HW,2013-04-26 17:26:00,
2013-04-26 10:31:00,60.8,36.9,30.22,SSW,203,4.0,5.6,41,0.00,,,0.00,WUHU216HW,2013-04-26 17:31:00,
2013-04-26 10:37:00,61.4,37.5,30.22,SW,225,2.7,5.8,41,0.00,,,0.00,WUHU216HW,2013-04-26 17:37:00,
2013-04-26 10:42:00,61.9,37.4,30.22,SSW,203,5.1,5.8,40,0.00,,,0.00,WUHU216HW,2013-04-26 17:42:00,
2013-04-26 10:47:00,62.1,36.1,30.22,SSW,203,1.6,5.1,38,0.00,,,0.00,WUHU216HW,2013-04-26 17:47:00,
2013-04-26 10:52:00,62.5,36.4,30.22,South,180,0.7,7.2,38,0.00,,,0.00,WUHU216HW,2013-04-26 17:52:00,
2013-04-26 10:57:00,63.0,36.2,30.22,SE,135,4.0,7.4,37,0.00,,,0.00,WUHU216HW,2013-04-26 17:57:00,
2013-04-26 11:02:00,63.4,36.5,30.22,SE,135,1.8,7.4,37,0.00,,,0.00,WUHU216HW,2013-04-26 18:02:00,
2013-04-26 11:07:00,63.7,36.8,30.22,SW,225,7.2,7.2,37,0.00,,,0.00,WUHU216HW,2013-04-26 18:07:00,
2013-04-26 11:12:00,64.3,37.3,30.22,SSW,203,4.0,7.2,37,0.00,,,0.00,WUHU216HW,2013-04-26 18:12:00,
2013-04-26 11:17:00,64.8,37.1,30.22,WNW,293,0.9,6.7,36,0.00,,,0.00,WUHU216HW,2013-04-26 18:17:00,
2013-04-26 11:22:00,65.2,36.6,30.22,SE,135,2.7,6.9,35,0.00,,,0.00,WUHU216HW,2013-04-26 18:22:00,
2013-04-26 11:27:00,65.5,36.3,30.22,WSW,248,5.4,7.6,34,0.00,,,0.00,WUHU216HW,2013-04-26 18:27:00,
2013-04-26 11:32:00,66.1,36.7,30.21,SW,225,6.7,7.6,34,0.00,,,0.00,WUHU216HW,2013-04-26 18:32:00,
2013-04-26 11:37:00,66.6,37.2,30.22,SSW,203,2.0,6.7,34,0.00,,,0.00,WUHU216HW,2013-04-26 18:37:00,
2013-04-26 11:42:00,67.0,36.8,30.21,SE,135,1.1,5.4,33,0.00,,,0.00,WUHU216HW,2013-04-26 18:42:00,
2013-04-26 11:47:00,67.3,35.7,30.21,SSW,203,2.5,4.3,31,0.00,,,0.00,WUHU216HW,2013-04-26 18:47:00,
2013-04-26 11:52:00,67.7,35.9,30.21,SW,225,4.5,5.4,31,0.00,,,0.00,WUHU216HW,2013-04-26 18:52:00,
2013-04-26 11:58:00,68.0,36.2,30.21,SSE,158,1.1,5.4,31,0.00,,,0.00,WUHU216HW,2013-04-26 18:58:00,
2013-04-26 12:03:00,68.0,35.5,30.21,SSW,203,4.3,6.5,30,0.00,,,0.00,WUHU216HW,2013-04-26 19:03:00,
2013-04-26 12:08:00,68.4,34.8,30.21,SW,225,4.0,6.5,29,0.00,,,0.00,WUHU216HW,2013-04-26 19:08:00,
2013-04-26 12:13:00,68.6,34.9,30.21,SSW,203,5.6,6.3,29,0.00,,,0.00,WUHU216HW,2013-04-26 19:13:00,
2013-04-26 12:18:00,68.9,35.3,30.21,WSW,248,1.8,6.9,29,0.00,,,0.00,WUHU216HW,2013-04-26 19:18:00,
2013-04-26 12:23:00,68.6,31.0,30.21,North,0,2.5,6.9,25,0.00,,,0.00,WUHU216HW,2013-04-26 19:23:00,
2013-04-26 12:28:00,68.2,30.7,30.20,SSE,158,2.2,2.7,25,0.00,,,0.00,WUHU216HW,2013-04-26 19:28:00,
2013-04-26 12:33:00,68.4,30.8,30.20,North,0,1.8,5.8,25,0.00,,,0.00,WUHU216HW,2013-04-26 19:33:00,
2013-04-26 12:38:00,68.9,32.3,30.20,NE,45,3.4,5.8,26,0.00,,,0.00,WUHU216HW,2013-04-26 19:38:00,
2013-04-26 12:43:00,69.5,31.8,30.20,ESE,113,2.0,5.4,25,0.00,,,0.00,WUHU216HW,2013-04-26 19:43:00,
2013-04-26 12:48:00,69.7,31.9,30.20,ESE,113,4.0,4.3,25,0.00,,,0.00,WUHU216HW,2013-04-26 19:48:00,
2013-04-26 12:53:00,69.8,32.0,30.20,NE,45,3.4,4.3,25,0.00,,,0.00,WUHU216HW,2013-04-26 19:53:00,
2013-04-26 12:58:00,69.8,31.1,30.20,SSW,203,2.5,5.4,24,0.00,,,0.00,WUHU216HW,2013-04-26 19:58:00,
2013-04-26 13:03:00,69.8,32.0,30.20,SE,135,1.3,5.4,25,0.00,,,0.00,WUHU216HW,2013-04-26 20:03:00,
2013-04-26 13:08:00,69.8,32.0,30.20,SSW,203,1.8,2.9,25,0.00,,,0.00,WUHU216HW,2013-04-26 20:08:00,
2013-04-26 13:13:00,70.4,32.5,30.20,WSW,248,1.6,5.6,25,0.00,,,0.00,WUHU216HW,2013-04-26 20:13:00,
2013-04-26 13:19:00,70.4,32.5,30.20,SW,225,4.0,5.6,25,0.00,,,0.00,WUHU216HW,2013-04-26 20:19:00,
2013-04-26 13:24:00,70.7,30.8,30.20,WNW,293,2.5,7.2,23,0.00,,,0.00,WUHU216HW,2013-04-26 20:24:00,
2013-04-26 13:29:00,70.6,29.6,30.20,ESE,113,1.3,7.2,22,0.00,,,0.00,WUHU216HW,2013-04-26 20:29:00,
2013-04-26 13:34:00,70.6,30.6,30.20,WNW,293,2.7,6.3,23,0.00,,,0.00,WUHU216HW,2013-04-26 20:34:00,
2013-04-26 13:39:00,70.7,30.8,30.20,NW,315,6.7,6.7,23,0.00,,,0.00,WUHU216HW,2013-04-26 20:39:00,
2013-04-26 13:44:00,70.6,32.7,30.20,NW,315,2.7,6.7,25,0.00,,,0.00,WUHU216HW,2013-04-26 20:44:00,
2013-04-26 13:49:00,71.5,33.4,30.20,SW,225,1.1,4.7,25,0.00,,,0.00,WUHU216HW,2013-04-26 20:49:00,
2013-04-26 13:54:00,72.0,33.8,30.20,North,0,3.4,3.4,25,0.00,,,0.00,WUHU216HW,2013-04-26 20:54:00,
2013-04-26 13:59:00,71.6,31.5,30.20,NW,315,5.1,5.1,23,0.00,,,0.00,WUHU216HW,2013-04-26 20:59:00,
2013-04-26 14:04:00,71.5,32.4,30.20,ENE,68,4.0,5.1,24,0.00,,,0.00,WUHU216HW,2013-04-26 21:04:00,
2013-04-26 14:09:00,71.6,31.5,30.20,NNW,338,2.0,5.4,23,0.00,,,0.00,WUHU216HW,2013-04-26 21:09:00,
2013-04-26 14:14:00,71.6,32.6,30.20,NNW,338,4.7,5.4,24,0.00,,,0.00,WUHU216HW,2013-04-26 21:14:00,
2013-04-26 14:19:00,72.0,31.9,30.20,WSW,248,3.4,4.7,23,0.00,,,0.00,WUHU216HW,2013-04-26 21:19:00,
2013-04-26 14:25:00,71.8,32.7,30.20,NNW,338,2.9,4.3,24,0.00,,,0.00,WUHU216HW,2013-04-26 21:25:00,
2013-04-26 14:30:00,72.0,33.8,30.20,SE,135,1.8,4.3,25,0.00,,,0.00,WUHU216HW,2013-04-26 21:30:00,
2013-04-26 14:35:00,72.0,31.9,30.19,SW,225,5.4,9.6,23,0.00,,,0.00,WUHU216HW,2013-04-26 21:35:00,
2013-04-26 14:40:00,72.4,32.1,30.20,SW,225,3.6,9.6,23,0.00,,,0.00,WUHU216HW,2013-04-26 21:40:00,
2013-04-26 14:45:00,72.4,31.2,30.20,North,0,4.3,6.5,22,0.00,,,0.00,WUHU216HW,2013-04-26 21:45:00,
2013-04-26 14:50:00,72.2,31.0,30.20,WNW,293,1.3,6.5,22,0.00,,,0.00,WUHU216HW,2013-04-26 21:50:00,
2013-04-26 14:55:00,72.4,31.2,30.20,SW,225,1.8,6.5,22,0.00,,,0.00,WUHU216HW,2013-04-26 21:55:00,
2013-04-26 15:00:00,72.4,31.2,30.19,NNE,23,8.1,8.1,22,0.00,,,0.00,WUHU216HW,2013-04-26 22:00:00,
2013-04-26 15:05:00,72.4,32.1,30.19,NNE,23,4.0,8.1,23,0.00,,,0.00,WUHU216HW,2013-04-26 22:05:00,
2013-04-26 15:10:00,72.4,31.2,30.20,NNE,23,3.1,6.0,22,0.00,,,0.00,WUHU216HW,2013-04-26 22:10:00,
2013-04-26 15:15:00,72.4,29.1,30.20,North,0,6.3,7.4,20,0.00,,,0.00,WUHU216HW,2013-04-26 22:15:00,
2013-04-26 15:20:00,72.0,27.2,30.20,West,270,1.3,6.3,19,0.00,,,0.00,WUHU216HW,2013-04-26 22:20:00,
2013-04-26 15:25:00,71.8,30.7,30.19,SSE,158,2.0,5.8,22,0.00,,,0.00,WUHU216HW,2013-04-26 22:25:00,
2013-04-26 15:31:00,72.0,27.2,30.20,NNW,338,8.1,8.1,19,0.00,,,0.00,WUHU216HW,2013-04-26 22:31:00,
2013-04-26 15:36:00,72.5,30.2,30.19,North,0,2.2,8.1,21,0.00,,,0.00,WUHU216HW,2013-04-26 22:36:00,
2013-04-26 15:41:00,72.7,30.4,30.19,NE,45,11.0,11.0,21,0.00,,,0.00,WUHU216HW,2013-04-26 22:41:00,
2013-04-26 15:46:00,72.9,30.6,30.19,East,90,1.8,11.0,21,0.00,,,0.00,WUHU216HW,2013-04-26 22:46:00,
2013-04-26 15:51:00,73.1,26.5,30.19,SE,135,4.0,10.7,18,0.00,,,0.00,WUHU216HW,2013-04-26 22:51:00,
2013-04-26 15:56:00,73.1,26.5,30.19,SE,135,2.5,10.7,18,0.00,,,0.00,WUHU216HW,2013-04-26 22:56:00,
2013-04-26 16:01:00,73.1,26.5,30.18,NNW,338,3.1,4.0,18,0.00,,,0.00,WUHU216HW,2013-04-26 23:01:00,
2013-04-26 16:06:00,73.1,26.5,30.18,SSE,158,1.1,4.0,18,0.00,,,0.00,WUHU216HW,2013-04-26 23:06:00,
2013-04-26 16:11:00,73.1,28.1,30.18,North,0,12.1,12.1,19,0.00,,,0.00,WUHU216HW,2013-04-26 23:11:00,
2013-04-26 16:16:00,73.3,28.3,30.18,NNE,23,6.7,12.1,19,0.00,,,0.00,WUHU216HW,2013-04-26 23:16:00,
2013-04-26 16:21:00,73.4,26.8,30.18,WNW,293,5.4,6.9,18,0.00,,,0.00,WUHU216HW,2013-04-26 23:21:00,
2013-04-26 16:26:00,73.4,26.8,30.18,ESE,113,4.0,5.4,18,0.00,,,0.00,WUHU216HW,2013-04-26 23:26:00,
2013-04-26 16:31:00,73.3,26.7,30.18,WNW,293,7.2,8.3,18,0.00,,,0.00,WUHU216HW,2013-04-26 23:31:00,
2013-04-26 16:36:00,73.3,28.3,30.19,WSW,248,9.4,12.5,19,0.00,,,0.00,WUHU216HW,2013-04-26 23:36:00,
2013-04-26 16:41:00,73.6,26.9,30.18,West,270,6.3,12.5,18,0.00,,,0.00,WUHU216HW,2013-04-26 23:41:00,
2013-04-26 16:46:00,73.1,26.5,30.18,WNW,293,7.8,9.4,18,0.00,,,0.00,WUHU216HW,2013-04-26 23:46:00,
2013-04-26 16:51:00,73.4,28.5,30.19,WNW,293,5.6,9.4,19,0.00,,,0.00,WUHU216HW,2013-04-26 23:51:00,
2013-04-26 17:05:00,73.6,26.9,30.19,NNW,338,6.3,12.1,18,0.00,,,0.00,WUHU216HW,2013-04-27 00:05:00,
2013-04-26 17:10:00,75.4,23.4,30.19,WNW,293,8.7,9.2,15,0.00,,,0.00,WUHU216HW,2013-04-27 00:10:00,
2013-04-26 17:15:00,74.2,22.4,30.19,NW,315,6.9,8.7,15,0.00,,,0.00,WUHU216HW,2013-04-27 00:15:00,
2013-04-26 17:20:00,73.8,23.8,30.19,West,270,4.3,7.6,16,0.00,,,0.00,WUHU216HW,2013-04-27 00:20:00,
2013-04-26 17:26:00,73.8,23.8,30.19,NNW,338,7.6,8.5,16,0.00,,,0.00,WUHU216HW,2013-04-27 00:26:00,
2013-04-26 17:31:00,73.4,23.5,30.19,SSW,203,5.4,10.5,16,0.00,,,0.00,WUHU216HW,2013-04-27 00:31:00,
2013-04-26 17:36:00,73.3,21.7,30.19,NW,315,6.3,10.5,15,0.00,,,0.00,WUHU216HW,2013-04-27 00:36:00,
2013-04-26 17:41:00,73.1,21.6,30.19,West,270,6.7,6.9,15,0.00,,,0.00,WUHU216HW,2013-04-27 00:41:00,
2013-04-26 17:46:00,72.7,22.9,30.19,WNW,293,6.7,9.6,16,0.00,,,0.00,WUHU216HW,2013-04-27 00:46:00,
2013-04-26 17:51:00,72.7,24.5,30.20,WSW,248,5.4,9.6,17,0.00,,,0.00,WUHU216HW,2013-04-27 00:51:00,
2013-04-26 17:56:00,72.4,22.6,30.19,SW,225,2.9,8.1,16,0.00,,,0.00,WUHU216HW,2013-04-27 00:56:00,
2013-04-26 18:01:00,72.0,22.2,30.20,WNW,293,4.3,8.5,16,0.00,,,0.00,WUHU216HW,2013-04-27 01:01:00,
2013-04-26 18:06:00,71.6,22.0,30.20,NW,315,3.4,8.5,16,0.00,,,0.00,WUHU216HW,2013-04-27 01:06:00,
2013-04-26 18:11:00,71.1,19.9,30.20,NW,315,4.3,9.4,15,0.00,,,0.00,WUHU216HW,2013-04-27 01:11:00,
2013-04-26 18:16:00,70.6,21.1,30.20,NE,45,2.5,9.4,16,0.00,,,0.00,WUHU216HW,2013-04-27 01:16:00,
2013-04-26 18:21:00,70.0,20.7,30.20,NW,315,6.3,8.7,16,0.00,,,0.00,WUHU216HW,2013-04-27 01:21:00,
2013-04-26 18:26:00,69.5,21.9,30.20,WNW,293,6.3,8.7,17,0.00,,,0.00,WUHU216HW,2013-04-27 01:26:00,
2013-04-26 18:31:00,69.1,21.6,30.20,SSW,203,4.0,7.4,17,0.00,,,0.00,WUHU216HW,2013-04-27 01:31:00,
2013-04-26 18:37:00,68.6,22.8,30.20,West,270,6.9,8.5,18,0.00,,,0.00,WUHU216HW,2013-04-27 01:37:00,
2013-04-26 18:42:00,68.4,22.7,30.20,SW,225,3.8,8.5,18,0.00,,,0.00,WUHU216HW,2013-04-27 01:42:00,
2013-04-26 18:47:00,68.2,24.1,30.20,West,270,4.0,5.4,19,0.00,,,0.00,WUHU216HW,2013-04-27 01:47:00,
2013-04-26 18:52:00,67.7,23.7,30.20,WSW,248,3.1,4.0,19,0.00,,,0.00,WUHU216HW,2013-04-27 01:52:00,
2013-04-26 18:57:00,67.5,23.5,30.20,NNW,338,5.1,5.1,19,0.00,,,0.00,WUHU216HW,2013-04-27 01:57:00,
2013-04-26 19:02:00,67.3,25.9,30.20,NNW,338,1.8,5.1,21,0.00,,,0.00,WUHU216HW,2013-04-27 02:02:00,
2013-04-26 19:07:00,67.3,25.9,30.21,WNW,293,4.5,4.5,21,0.00,,,0.00,WUHU216HW,2013-04-27 02:07:00,
2013-04-26 19:12:00,67.1,26.7,30.20,North,0,2.2,6.3,22,0.00,,,0.00,WUHU216HW,2013-04-27 02:12:00,
2013-04-26 19:17:00,67.1,26.7,30.20,NNW,338,1.8,6.3,22,0.00,,,0.00,WUHU216HW,2013-04-27 02:17:00,
2013-04-26 19:22:00,67.0,27.6,30.20,WSW,248,2.5,4.5,23,0.00,,,0.00,WUHU216HW,2013-04-27 02:22:00,
2013-04-26 19:27:00,66.6,27.3,30.21,NW,315,4.7,4.9,23,0.00,,,0.00,WUHU216HW,2013-04-27 02:27:00,
2013-04-26 19:32:00,66.4,28.2,30.21,SW,225,0.7,4.9,24,0.00,,,0.00,WUHU216HW,2013-04-27 02:32:00,
2013-04-26 19:37:00,66.1,28.8,30.21,WNW,293,2.7,4.5,25,0.00,,,0.00,WUHU216HW,2013-04-27 02:37:00,
2013-04-26 19:43:00,65.9,28.7,30.21,WSW,248,0.4,4.5,25,0.00,,,0.00,WUHU216HW,2013-04-27 02:43:00,
2013-04-26 19:48:00,65.5,29.3,30.22,ENE,68,0.2,4.5,26,0.00,,,0.00,WUHU216HW,2013-04-27 02:48:00,
2013-04-26 19:53:00,65.2,29.1,30.21,NNE,23,0.2,1.1,26,0.00,,,0.00,WUHU216HW,2013-04-27 02:53:00,
2013-04-26 19:58:00,65.0,30.9,30.22,North,0,0.0,0.7,28,0.00,,,0.00,WUHU216HW,2013-04-27 02:58:00,
2013-04-26 20:03:00,64.6,30.6,30.22,NE,45,0.4,0.7,28,0.00,,,0.00,WUHU216HW,2013-04-27 03:03:00,
2013-04-26 20:08:00,64.1,31.1,30.22,NE,45,0.2,1.8,29,0.00,,,0.00,WUHU216HW,2013-04-27 03:08:00,
2013-04-26 20:13:00,63.7,30.8,30.22,SW,225,0.0,1.8,29,0.00,,,0.00,WUHU216HW,2013-04-27 03:13:00,
2013-04-26 20:18:00,63.4,31.4,30.22,NE,45,0.2,0.9,30,0.00,,,0.00,WUHU216HW,2013-04-27 03:18:00,
2013-04-26 20:23:00,63.0,31.9,30.22,North,0,0.0,1.1,31,0.00,,,0.00,WUHU216HW,2013-04-27 03:23:00,
2013-04-26 20:28:00,62.6,31.5,30.22,North,0,0.0,1.1,31,0.00,,,0.00,WUHU216HW,2013-04-27 03:28:00,
2013-04-26 20:33:00,62.3,32.6,30.22,NW,315,1.6,2.0,33,0.00,,,0.00,WUHU216HW,2013-04-27 03:33:00,
2013-04-26 20:38:00,61.9,32.3,30.22,West,270,1.6,2.2,33,0.00,,,0.00,WUHU216HW,2013-04-27 03:38:00,
2013-04-26 20:43:00,61.6,34.1,30.22,WNW,293,0.7,2.2,36,0.00,,,0.00,WUHU216HW,2013-04-27 03:43:00,
2013-04-26 20:49:00,61.2,32.4,30.22,NW,315,0.0,1.8,34,0.00,,,0.00,WUHU216HW,2013-04-27 03:49:00,
2013-04-26 20:54:00,61.0,32.2,30.23,North,0,0.7,1.8,34,0.00,,,0.00,WUHU216HW,2013-04-27 03:54:00,
2013-04-26 20:59:00,60.7,33.3,30.23,WNW,293,0.4,1.1,36,0.00,,,0.00,WUHU216HW,2013-04-27 03:59:00,
2013-04-26 21:01:00,60.5,33.2,30.23,North,0,0.9,1.1,36,0.00,,,0.00,WUHU216HW,2013-04-27 04:01:00,
2013-04-26 21:06:00,60.3,33.8,30.23,North,0,0.4,1.8,37,0.00,,,0.00,WUHU216HW,2013-04-27 04:06:00,
2013-04-26 21:11:00,60.1,33.6,30.23,NNW,338,0.4,1.8,37,0.00,,,0.00,WUHU216HW,2013-04-27 04:11:00,
2013-04-26 21:16:00,59.8,33.3,30.23,North,0,1.6,2.0,37,0.00,,,0.00,WUHU216HW,2013-04-27 04:16:00,
2013-04-26 21:21:00,59.6,33.9,30.23,North,0,1.1,2.5,38,0.00,,,0.00,WUHU216HW,2013-04-27 04:21:00,
2013-04-26 21:26:00,59.4,33.7,30.24,NW,315,1.1,2.5,38,0.00,,,0.00,WUHU216HW,2013-04-27 04:26:00,
2013-04-26 21:31:00,59.2,34.2,30.23,NNW,338,0.7,1.6,39,0.00,,,0.00,WUHU216HW,2013-04-27 04:31:00,
2013-04-26 21:37:00,59.0,34.0,30.24,NW,315,1.8,2.2,39,0.00,,,0.00,WUHU216HW,2013-04-27 04:37:00,
2013-04-26 21:42:00,58.7,34.4,30.24,NNW,338,1.3,2.2,40,0.00,,,0.00,WUHU216HW,2013-04-27 04:42:00,
2013-04-26 21:47:00,58.5,33.6,30.24,West,270,0.7,2.0,39,0.00,,,0.00,WUHU216HW,2013-04-27 04:47:00,
2013-04-26 21:52:00,58.5,33.6,30.24,West,270,0.4,2.0,39,0.00,,,0.00,WUHU216HW,2013-04-27 04:52:00,
2013-04-26 21:57:00,58.3,33.4,30.24,West,270,0.4,0.7,39,0.00,,,0.00,WUHU216HW,2013-04-27 04:57:00,
2013-04-26 22:02:00,58.0,33.0,30.24,West,270,1.1,1.1,39,0.00,,,0.00,WUHU216HW,2013-04-27 05:02:00,
2013-04-26 22:07:00,57.6,32.8,30.24,West,270,0.9,1.6,39,0.00,,,0.00,WUHU216HW,2013-04-27 05:07:00,
2013-04-26 22:12:00,57.2,32.4,30.25,North,0,1.8,1.8,39,0.00,,,0.00,WUHU216HW,2013-04-27 05:12:00,
2013-04-26 22:17:00,57.1,32.2,30.25,NW,315,0.7,1.8,39,0.00,,,0.00,WUHU216HW,2013-04-27 05:17:00,
2013-04-26 22:22:00,57.1,32.2,30.25,WSW,248,1.8,1.8,39,0.00,,,0.00,WUHU216HW,2013-04-27 05:22:00,
2013-04-26 22:27:00,56.9,32.1,30.25,West,270,0.9,1.8,39,0.00,,,0.00,WUHU216HW,2013-04-27 05:27:00,
2013-04-26 22:32:00,56.7,32.0,30.25,North,0,0.7,0.9,39,0.00,,,0.00,WUHU216HW,2013-04-27 05:32:00,
2013-04-26 22:37:00,56.3,31.6,30.25,North,0,0.9,1.8,39,0.00,,,0.00,WUHU216HW,2013-04-27 05:37:00,
2013-04-26 22:42:00,56.2,32.1,30.25,North,0,1.3,1.8,40,0.00,,,0.00,WUHU216HW,2013-04-27 05:42:00,
2013-04-26 22:47:00,56.0,32.0,30.25,NW,315,1.1,2.0,40,0.00,,,0.00,WUHU216HW,2013-04-27 05:47:00,
2013-04-26 22:52:00,56.0,31.3,30.25,WSW,248,0.4,2.0,39,0.00,,,0.00,WUHU216HW,2013-04-27 05:52:00,
2013-04-26 22:57:00,55.8,31.2,30.25,North,0,0.2,1.1,39,0.00,,,0.00,WUHU216HW,2013-04-27 05:57:00,
2013-04-26 23:02:00,55.8,31.2,30.25,NW,315,0.0,1.1,39,0.00,,,0.00,WUHU216HW,2013-04-27 06:02:00,
2013-04-26 23:07:00,55.6,31.0,30.25,NNE,23,0.9,1.1,39,0.00,,,0.00,WUHU216HW,2013-04-27 06:07:00,
2013-04-26 23:12:00,55.3,30.6,30.25,North,0,0.4,1.1,39,0.00,,,0.00,WUHU216HW,2013-04-27 06:12:00,
2013-04-26 23:17:00,55.1,31.8,30.25,NE,45,0.4,1.8,41,0.00,,,0.00,WUHU216HW,2013-04-27 06:17:00,
2013-04-26 23:22:00,54.9,31.1,30.25,SW,225,0.7,1.8,40,0.00,,,0.00,WUHU216HW,2013-04-27 06:22:00,
2013-04-26 23:27:00,54.7,30.9,30.25,NE,45,0.4,0.7,40,0.00,,,0.00,WUHU216HW,2013-04-27 06:27:00,
2013-04-26 23:32:00,54.5,31.2,30.25,NNE,23,0.0,0.9,41,0.00,,,0.00,WUHU216HW,2013-04-27 06:32:00,
2013-04-26 23:37:00,54.4,31.1,30.25,NNE,23,0.0,0.9,41,0.00,,,0.00,WUHU216HW,2013-04-27 06:37:00,
2013-04-26 23:42:00,54.2,31.5,30.25,NNE,23,0.9,1.6,42,0.00,,,0.00,WUHU216HW,2013-04-27 06:42:00,
2013-04-26 23:47:00,54.0,30.8,30.25,ESE,113,0.4,1.6,41,0.00,,,0.00,WUHU216HW,2013-04-27 06:47:00,
2013-04-26 23:52:00,53.8,30.6,30.25,NE,45,0.2,0.4,41,0.00,,,0.00,WUHU216HW,2013-04-27 06:52:00,
2013-04-26 23:57:00,53.6,30.4,30.25,NE,45,0.0,0.4,41,0.00,,,0.00,WUHU216HW,2013-04-27 06:57:00,